Weather History for KLND - May, 2015

Change the Weather History Date:

Saturday, May 16, 2015

  Actual Average Record
Temperature  
Mean Temperature 50 °F 53 °F  
Max Temperature 64 °F 67 °F 86 °F (1988)
Min Temperature 35 °F 40 °F 21 °F (1896)
Degree Days  
Heating Degree Days 15 12  
Month to date heating degree days 249 226  
Since 1 July heating degree days 6731 7480  
Cooling Degree Days 0 0  
Month to date cooling degree days 0 0  
Year to date cooling degree days 0 0  
Moisture  
Dew Point 32 °F    
Average Humidity 60    
Maximum Humidity 92    
Minimum Humidity 27    
Precipitation  
Precipitation 0.01 in 0.07 in 1.58 in (1952)
Month to date precipitation 2.32 1.16  
Year to date precipitation 6.74 5.18  
Snow  
Snow 0.00 in 0.10 in - ()
Month to date snowfall 0.7 3.9  
Since 1 July snowfall 73.8 90.4  
Snow Depth 0.00 in    
Sea Level Pressure  
Sea Level Pressure 29.58 in    
Wind  
Wind Speed 7 mph (WNW)    
Max Wind Speed 24 mph    
Max Gust Speed 31 mph    
Visibility 10 miles    
Events      
T = Trace of Precipitation, MM = Missing Value Source: NWS Daily Summary

Daily Weather History Graph

Daily Weather History Graph

Search for Another Location

Airport or City:

Trip Planner

Search our weather history database for the weather conditions in past years. The results will help you decide how hot, cold, wet, or windy it might be!

Date:

Astronomy

May. 16, 2015 Rise Set
Actual Time 5:51 AM MDT 8:31 PM MDT
Civil Twilight 5:18 AM MDT 9:04 PM MDT
Nautical Twilight 4:37 AM MDT 9:45 PM MDT
Astronomical Twilight 3:51 AM MDT 10:32 PM MDT
Moon 5:04 AM MDT (5/16) 7:00 PM MDT (5/16)
Length of Visible Light 15h 45m
Length of Day
14h 40m
Waning Crescent, 3% of the Moon is Illuminated
May 16
Waning Crescent
May 17
New
May 25
First Quarter
Jun 2
Full
Jun 9
Last Quarter

Hourly Weather History & Observations

Time (MDT) Temp. Windchill Dew Point Humidity Pressure Visibility Wind Dir Wind Speed Gust Speed Precip Events Conditions
12:53 AM 39.9 °F 35.1 °F 37.9 °F 93% 29.58 in 10.0 mi WSW 6.9 mph - N/A   Clear
1:53 AM 43.0 °F 39.5 °F 37.9 °F 82% 29.56 in 10.0 mi NW 5.8 mph - N/A   Clear
2:53 AM 39.0 °F 35.7 °F 37.0 °F 93% 29.57 in 10.0 mi ESE 4.6 mph - N/A   Clear
3:53 AM 39.9 °F 36.7 °F 35.1 °F 83% 29.57 in 10.0 mi ESE 4.6 mph - N/A   Clear
4:53 AM 37.0 °F - 30.9 °F 79% 29.57 in 10.0 mi Calm Calm - N/A   Clear
5:53 AM 36.0 °F 28.0 °F 30.9 °F 82% 29.57 in 10.0 mi WNW 11.5 mph - N/A   Clear
6:53 AM 43.0 °F 38.2 °F 28.0 °F 56% 29.56 in 10.0 mi West 8.1 mph - N/A   Clear
7:53 AM 43.0 °F 40.3 °F 35.1 °F 74% 29.58 in 10.0 mi SE 4.6 mph - N/A   Clear
8:53 AM 50.0 °F - 35.1 °F 57% 29.56 in 10.0 mi SE 5.8 mph - N/A   Clear
9:53 AM 53.1 °F - 32.0 °F 45% 29.55 in 10.0 mi ENE 8.1 mph - N/A   Clear
10:53 AM 55.4 °F - 28.4 °F 36% 29.63 in 10.0 mi Variable 3.5 mph - N/A   Clear
11:53 AM 57.9 °F - 27.0 °F 31% 29.54 in 10.0 mi Variable 3.5 mph - N/A   Clear
12:53 PM 61.0 °F - 28.0 °F 29% 29.52 in 10.0 mi North - - N/A   Clear
1:53 PM 61.0 °F - 28.9 °F 30% 29.51 in 10.0 mi Variable 3.5 mph - N/A   Partly Cloudy
2:53 PM 60.1 °F - 28.0 °F 30% 29.52 in 10.0 mi Variable 4.6 mph - N/A   Mostly Cloudy
3:53 PM 62.1 °F - 28.0 °F 28% 29.52 in 10.0 mi South 8.1 mph - N/A   Mostly Cloudy
4:53 PM 62.1 °F - 32.0 °F 32% 29.52 in 10.0 mi SW 20.7 mph 26.5 mph N/A   Mostly Cloudy
5:08 PM 59.0 °F - 30.9 °F 35% 29.62 in 10.0 mi SSW 12.7 mph - N/A   Overcast
5:21 PM 59.0 °F - 30.0 °F 33% 29.63 in 10.0 mi NNW 16.1 mph 26.5 mph N/A   Overcast
5:28 PM 59.0 °F - 28.0 °F 31% 29.64 in 10.0 mi Variable 5.8 mph - N/A   Overcast
5:53 PM 61.0 °F - 30.0 °F 31% 29.55 in 10.0 mi North 9.2 mph 20.7 mph N/A   Overcast
6:53 PM 57.0 °F - 28.9 °F 34% 29.56 in 10.0 mi NW 3.5 mph - N/A   Mostly Cloudy
7:53 PM 53.1 °F - 33.1 °F 47% 29.62 in 10.0 mi North 11.5 mph 17.3 mph N/A   Mostly Cloudy
8:53 PM 50.0 °F - 34.0 °F 54% 29.63 in 10.0 mi West 9.2 mph - N/A   Mostly Cloudy
9:53 PM 50.0 °F - 34.0 °F 54% 29.64 in 10.0 mi WSW 6.9 mph - N/A   Overcast
10:53 PM 48.9 °F - 35.1 °F 59% 29.66 in 10.0 mi NNW 8.1 mph - N/A   Overcast
11:53 PM 48.0 °F - 36.0 °F 63% 29.68 in 10.0 mi Calm Calm - N/A   Overcast